Location: B?lite?ti
(46.2833°N, 22.7333°E)
Time: 15:42:25
(UTC+00:00)

Cosmos 1680 Rocket - Pass Details

Date: 24 January 2021
Orbit: 760 x 780 km, 74.1° (Epoch: 28 February)

Event Time Altitude Azimuth Distance (km) Brightness Sun altitude
Rises 15:52:46 0° 344° (NNW) 3,249 6.7 -5.7°
Reaches altitude 10° 15:55:23 10° 354° (N) 2,315 5.8 -6.1°
Maximum altitude 16:00:06 33° 58° (ENE) 1,281 4.2 -6.8°
Drops below altitude 10° 16:04:46 10° 122° (ESE) 2,293 5.6 -7.6°
Sets 16:07:21 0° 132° (SE) 3,213 6.4 -8.0°
